Location: ??????
(55.6500°N, 37.8000°E)
Time: 10:34:23
(UTC+00:00)

Envisat - Visible Passes

Search period start: 09 November 2025 00:00
Search period end: 19 November 2025 00:00
Orbit: 761 x 763 km, 98.4° (Epoch: 08 November)

Date Brightness Start Highest point End Pass type
(mag) Time Alt. Az. Time Alt. Az. Time Alt. Az.
09 Nov 4.7 01:13:26 10° N 01:15:23 23° N 01:15:23 23° N visible
09 Nov 4.9 02:53:50 10° NNW 02:55:30 13° NW 02:55:30 13° NW visible
10 Nov 5.1 00:35:33 10° NNE 00:37:04 20° NNE 00:37:04 20° NNE visible
10 Nov 4.7 02:15:15 10° N 02:17:12 18° NNW 02:17:12 18° NNW visible
10 Nov 5.6 23:57:53 10° NNE 23:58:46 15° NNE 23:58:46 15° NNE visible
11 Nov 4.7 01:37:03 10° N 01:38:54 21° N 01:38:54 21° N visible
12 Nov 5.0 00:59:04 10° NNE 01:00:35 20° N 01:00:35 20° N visible
12 Nov 4.9 02:39:09 10° N 02:40:43 14° NNW 02:40:43 14° NNW visible
13 Nov 5.4 00:21:16 10° NNE 00:22:17 16° NNE 00:22:17 16° NNE visible
13 Nov 4.8 02:00:45 10° N 02:02:25 18° NNW 02:02:25 18° NNW visible
13 Nov 5.9 23:43:42 10° NNE 23:44:00 11° NNE 23:44:00 11° NNE visible
14 Nov 5.0 01:22:39 10° N 01:24:07 19° N 01:24:07 19° N visible
14 Nov 5.0 03:03:23 10° NNW 03:04:14 11° NNW 03:04:14 11° NNW visible
15 Nov 5.3 00:44:44 10° NNE 00:45:49 17° NNE 00:45:49 17° NNE visible
15 Nov 4.9 02:24:34 10° N 02:25:56 15° NNW 02:25:56 15° NNW visible
16 Nov 5.7 00:07:00 10° NNE 00:07:31 13° NNE 00:07:31 13° NNE visible
16 Nov 5.0 01:46:18 10° N 01:47:38 17° N 01:47:38 17° N visible
17 Nov 5.2 01:08:15 10° N 01:09:21 16° N 01:09:21 16° N visible
17 Nov 5.0 02:48:33 10° NNW 02:49:28 12° NNW 02:49:28 12° NNW visible
18 Nov 5.6 00:30:25 10° NNE 00:31:03 14° NNE 00:31:03 14° NNE visible
18 Nov 5.0 02:10:02 10° N 02:11:10 15° NNW 02:11:10 15° NNW visible
